User: anonymous   Login
Location: Unspecified
(0.0000°N, 0.0000°E)
Time: 08:51:59
(UTC+00:00)
Language:

STARLINK-2613 - Orbit

View from above orbital plane
View from above orbital plane
View from above satellite
View from above satellite

Ground track
Ground track

The orbit is defined by the following mean orbital elements,

1 48353U          26145.02207541 +.00000000 +00000-0 +24941-3 0 00008
2 48353  53.1604   3.1100 0000971  91.2925 268.8187 15.31715690    02
Epoch (UTC): 25 May 2026 00:31:47
Eccentricity: 0.0000971
inclination: 53.1604°
perigee height: 470 km
apogee height: 471 km
right ascension of ascending node: 3.1100°
argument of perigee: 91.2925°
revolutions per day: 15.31715690
mean anomaly at epoch: 268.8187°

The dashed part of the orbit path shows where the satellite is in the earth's shadow,  

DLR